Flag for Germany Weather past 2 weeks in Göppingen, Baden-Württemberg, Germany

Now
53 °F

Sunny.


Feels Like: 53 °F
Forecast: 35 / 63 °F
Wind: 3 mph from East

Location: Stoetten

Current Time: Sep 23, 2014 at 5:26:33 PM

Latest Report: Sep 23, 2014 at 5:00 PM


Visibility: 25 mi

Pressure: 30.09 "Hg

Humidity: 65%

Dew point: 41 °F

Location of GöppingenLocation

Historic Weather in Göppingen — Graph

°F

Göppingen temperature yesterday

Maximum temperature yesterday: 50 °F (at 12:00 AM)
Minimum temperature yesterday: 41 °F (at 8:00 PM)
Average temperature yesterday: 46 °F

Past Weeks' High & Low Weather Summary

 TemperatureHumidityPressure
High71 °F (Sep 8, 5:00 PM)100% (Sep 11, 9:00 AM)30.24 "Hg (Sep 11, 9:00 AM)
Low41 °F (Sep 23, 2:00 AM)60% (Sep 10, 5:00 PM)29.84 "Hg (Sep 18, 4:00 PM)
Average55 °F90%30.01 "Hg
* Reported Sep 8 4:00 PM — Sep 23 4:00 PM, Göppingen, Weather by CustomWeather, © 2014

Note: Actual official high and low records may vary slightly from our data, if they occured in-between our weather recording intervals... More about our weather records

Advertising

Göppingen weather history for previous 24 hours

 ConditionsComfort  
Time TempWeatherWind HumidityBarometerVisibility
4:00 PM
Sep 23
53 °FSunny.3 mph66%30.11 "Hg25 mi
3:00 PM52 °FPassing clouds.3 mph63%30.14 "Hg22 mi
2:00 PM50 °FPassing clouds.2 mph62%30.17 "Hg22 mi
1:00 PM49 °FPartly sunny.2 mph64%30.20 "Hg16 mi
12:00 PM47 °FPartly sunny.1 mph68%30.20 "Hg10 mi
11:00 AM46 °FPartly sunny.1 mph82%30.22 "Hg7 mi
10:00 AM43 °FFog.2 mph94%30.24 "Hg3 mi
9:00 AM43 °FFog.2 mph96%30.23 "Hg2 mi
8:00 AM42 °FLow clouds.3 mph97%30.22 "Hg6 mi
7:00 AM42 °FLow clouds.3 mph95%30.21 "Hg7 mi
6:00 AM41 °FLow clouds.5 mph95%30.20 "Hg10 mi
5:00 AM42 °FOvercast.5 mph95%30.19 "Hg6 mi
4:00 AM41 °FFog.5 mph97%30.19 "Hg3 mi
3:00 AM41 °FLow clouds.5 mph96%30.19 "Hg5 mi
2:00 AM41 °FLow clouds.5 mph98%30.19 "Hg2 mi
1:00 AM41 °FLow clouds.5 mph99%30.20 "Hg1 mi
12:00 AM41 °FLow clouds.5 mph99%30.21 "Hg1 mi
11:00 PM
Sep 22
42 °FLow clouds.5 mph99%30.21 "Hg2 mi
10:00 PM42 °FLow clouds.3 mph100%30.19 "Hg0 mi
9:00 PM41 °FFog.7 mph100%30.19 "Hg0 mi
8:00 PM41 °FFog.7 mph100%30.17 "Hg0 mi
7:00 PM42 °FThunderstorms. Partly sunny.8 mph96%30.13 "Hg6 mi
6:00 PM42 °FThundershowers. Low clouds.9 mph93%30.14 "Hg2 mi
5:00 PM42 °FRain. Low clouds.9 mph98%30.11 "Hg2 mi
Weather by CustomWeather, © 2014

See weather overviewHow to use our weather pages